Starlink 1843

operational
NORAD ID: 47133 Int'l Des: 2020-088 Owner: SPXS Country: US Constellation: starlink
LEOCIRCULARSTARLINK_TYPE

Über Starlink 1843

Beschreibung wird geladen...

Live-Position

3D-Globus wird geladen...

Nächste Überflüge

Höhenverlauf

Altitude vs Time

uPlot chart will show altitude changes over time

Zweizeiliger Elementsatz

1 47133U 20088M 25351.00003472 .00069743 00000-0 11950-2 0 9995
2 47133 53.0538 290.0731 0013678 80.3822 217.0823 15.50504174 5857
Epoch: 17. Dez. 2025 • Age: 7 hours

Aktueller Status

Höhe 410.0 km
Geschwindigkeit 7.67 km/s
Subsatellitenpunkt 26.65°N, 125.59°E
Startdatum 25. Nov. 2020
Alter 5 years
Typ internet

Technische Details

Klassifizierung Payload
Masse 260.00 kg
Trockenmasse 248.00 kg
Gesamtmasse 260.00 kg
Länge 0.20 m
Durchmesser 2.80 m
Spannweite 9.00 m
Form Box + pan
Hersteller SPXS
Bus-Typ Starlink
Phasenstatus In Orbit
Besitzer/Staat SPXS/US

Große Konstellationen

Loading constellations...